Location: Finney State Fishing Lake and Wildlife Area
(38.1834°N, 100.3310°W)
Time: 15:26:25
(UTC+00:00)

Daily predictions for brighter satellites

Satellite Brightness Start Highest point End
(mag) Time Altitude Azimuth Time Altitude Azimuth Time Altitude Azimuth
Cosmos 1758 3.5 12:01:15 10° NNW 12:05:05 49° W 12:08:55 10° SSW
CZ-2C R/B 2.9 12:00:04 10° SSE 12:05:27 78° ENE 12:11:00 10° N
ATLAS 5 CENTAUR R/B 4.2 12:04:56 11° W 12:05:41 11° WSW 12:07:39 10° SW
Cosmos 2360 Rocket 3.6 12:01:26 10° N 12:06:46 40° ENE 12:12:03 10° SE
SJ-12 4.0 12:03:06 10° N 12:07:01 50° WNW 12:10:56 10° SSW
Envisat 3.0 12:02:48 10° N 12:07:52 69° WNW 12:12:53 10° SSW
COSMO-SKYMED 1 2.5 12:04:30 10° S 12:08:50 76° WSW 12:13:11 10° NNW
Cosmos 1953 2.5 12:11:07 10° N 12:15:10 77° E 12:19:11 10° S
BREEZE-M DEB (TANK) 3.5 12:13:31 10° NW 12:15:24 16° N 12:16:58 10° NE
Lacrosse 5 3.5 12:14:28 10° NNW 12:18:57 30° NE 12:23:25 10° E
Cosmos 371 Rocket 3.3 12:17:13 10° NNW 12:22:07 74° WSW 12:26:56 10° S
USA 229 DEB 4.1 12:15:10 10° NW 12:22:29 57° WSW 12:30:07 10° SSE
USA 229 4.1 12:15:16 10° NW 12:22:35 57° WSW 12:30:14 10° SSE
Cosmos 2366 rocket 4.5 12:17:39 10° NNW 12:23:25 38° W 12:29:11 10° SSW
Cosmos 1346 Rocket 3.2 12:22:03 10° SSW 12:25:51 42° WNW 12:29:41 10° N
Cosmos 1674 3.3 12:22:35 10° SW 12:25:54 31° WNW 12:29:15 10° NNW
Cosmos 1455 Rocket 3.4 12:23:01 10° N 12:27:30 75° E 12:31:55 10° SSE
CZ-4C R/B 4.2 12:21:46 10° NNW 12:28:49 45° NE 12:36:50 10° ESE
Cosmos 1025 Rocket 3.4 12:25:33 10° S 12:29:52 73° E 12:34:11 10° NNE
Cosmos 1980 Rocket 3.8 12:27:25 10° WNW 12:30:03 13° W 12:32:40 10° SW
SL-27 R/B 2.2 12:26:53 10° SSW 12:30:09 72° WNW 12:33:27 10° NNE
ADEOS 3.6 12:27:06 10° N 12:32:15 61° WNW 12:37:22 10° SSW
